Regional Weather Roundup
Issued by NWS Binghamton, NY

Home | Current Version | Previous Version | Text Only | Print | Product List | Glossary On
Versions: 1 2 3 4 5 6 7 8 9 10 11 12 13 14 15 16 17 18 19 20 21 22 23 24 25 26 27 28
000
ASUS41 KBGM 191310
RWRBGM
RWRBGM
BINGHAMTON REGIONAL WEATHER ROUNDUP
NATIONAL WEATHER SERVICE BINGHAMTON NY
900 AM EDT SAT APR 19 2014

Note: "fair" indicates few or no clouds below 12,000 feet with no
significant weather and/or obstructions to visibility.

* = Station(s) that does not report precipitation, such as rain,
snow, etc, also no thunder or fog.

!NYZ009-015>018-022>025-036-037-044>046-055>057-062-191400
...CENTRAL NEW YORK...

CITY           SKY/WX    TMP DP  RH WIND       PRES   REMARKS
BINGHAMTON     SUNNY     39  29  67 NW7       30.29R WCI  34
CORTLAND       PTSUNNY   37  32  81 N5        30.34S WCI  34
DANSVILLE      SUNNY     41  32  70 NW13      30.39R
ELMIRA         SUNNY     44  30  57 NE8       30.34R
ITHACA         PTSUNNY   38  31  76 N9        30.35R WCI  31
HAMILTON       CLOUDY    37  32  81 N8        30.32  WCI  31
MONTICELLO     MOSUNNY   45  34  65 NW9       30.28S
NORWICH        SUNNY     39  30  70 N8        30.32S WCI  34
ONEONTA        SUNNY     37  30  75 NW7       30.27S WCI  32
PENN YAN       MOSUNNY   41  31  67 NW9       30.36R
ROME           CLOUDY    38  32  79 W8        30.34R WCI  32
SIDNEY         SUNNY     45  34  65 NW7       30.30S
SYRACUSE       CLOUDY    39  34  81 NW8       30.37R WCI  34
$$

!PAZ038>040-043-044-047-048-072-191400
...NORTHEAST PENNSYLVANIA...

CITY           SKY/WX    TMP DP  RH WIND       PRES   REMARKS
SCRANTON       MOSUNNY   47  34  60 NW14      30.32R
TOWANDA*       SUNNY     45  30  57 N9        30.35R
$$
&&
KEY
WCI = WIND CHILL INDEX
VSB = VISIBILITY
HX  = HEAT INDEX
$$



USA.gov is the U.S. government's official web portal to all federal, state and local government web resources and services.